Regional Weather Roundup
Issued by NWS

Home | Current Version | Previous Version | Graphics & Text | Print | Product List | Glossary On
Versions: 1 2 3 4 5 6 7 8 9 10 11 12 13 14 15 16 17 18 19 20 21 22 23 24 25 26 27 28 29 30 31 32 33 34 35 36 37 38 39 40 41 42 43 44 45 46 47 48 49 50
650
ASUS44 KMEG 230710
RWRTN
TENNESSEE HOURLY STATE WEATHER ROUNDUP
NATIONAL WEATHER SERVICE MEMPHIS TN
200 AM CDT TUE MAY 23 2017

TNZ002-004-019-021-049-052-054-088>092-230800-
WEST TENNESSEE

CITY           SKY/WX    TMP DP  RH WIND       PRES   REMARKS
MEMPHIS INTL   CLOUDY    66  59  78 CALM      29.87F
NWS MEMPHIS      N/A     64 N/A N/A MISG        N/A
JACKSON        CLOUDY    64  59  83 CALM      29.88F
DYERSBURG      CLOUDY    65  58  78 CALM      29.88F
COVINGTON      CLOUDY    64  63  94 CALM      29.87F
UNION CITY     CLOUDY    63  59  88 CALM      29.88F
BOLIVAR        CLOUDY    63  59  88 CALM      29.86F
PARIS          CLOUDY    63  59  88 N3        29.88F
HUNTINGDON     CLOUDY    63  57  82 CALM      29.87F
SELMER         CLOUDY    63  61  94 CALM      29.87F
SAVANNAH       CLOUDY    64  61  88 CALM      29.86F
$$

TNZ008-025-027-028-033-062-065-066-230800-
NORTH MIDDLE TENNESSEE

CITY           SKY/WX    TMP DP  RH WIND       PRES   REMARKS
NASHVILLE      CLOUDY    65  55  70 NE5       29.89F
PORTLAND       MOCLDY    61  57  88 CALM      29.89S
CLARKSVILLE    CLOUDY    62  54  74 E3        29.89F
SMYRNA           N/A    N/A N/A N/A MISG        N/A
COOKEVILLE     CLOUDY    63  59  88 CALM      29.87F
GALLATIN       MOCLDY    63  54  72 CALM      29.91S
CROSSVILLE     CLOUDY    60  55  83 CALM      29.92F
$$

TNZ061-075-076-078-094-096-097-230800-
SOUTH MIDDLE TENNESSEE

CITY           SKY/WX    TMP DP  RH WIND       PRES   REMARKS
FAYETTEVILLE     N/A     64  63  94 SE5       29.87F
TULLAHOMA      CLOUDY    64  55  72 E3        29.89F
WINCHESTER     CLOUDY    64  64 100 NE3       29.90S
MCMINNVILLE    CLOUDY    63  61  94 CALM      29.89S
COLUMBIA       CLOUDY    63  59  88 CALM      29.87S
SHELBYVILLE    CLOUDY    63  57  82 CALM      29.88F
$$

TNZ017-018-042-046-047-230800-
NORTHEAST TENNESSEE

CITY           SKY/WX    TMP DP  RH WIND       PRES   REMARKS
TRI CITIES     CLOUDY    63  58  83 CALM      29.93F
ELIZABETHTON   DRIZZLE   63  61  94 CALM      29.92F
$$

TNZ012-013-036-069-073-074-230800-
CENTRAL EAST TENNESSEE

CITY           SKY/WX    TMP DP  RH WIND       PRES   REMARKS
KNOXVILLE      LGT RAIN  64  61  90 SE3       29.89F
OAK RIDGE      LGT RAIN  62  59  90 CALM      29.91F
DOWNTOWN KNOXV CLOUDY    63  63 100 CALM      29.90F
GATLINBURG     CLOUDY    64  63  94 CALM      29.91F
MORRISTOWN     CLOUDY    64  63  94 CALM      29.91F
JACKSBORO      CLOUDY    59  57  94 CALM      29.93F
$$

TNZ083-085-099-230800-
SOUTHEAST TENNESSEE

CITY           SKY/WX    TMP DP  RH WIND       PRES   REMARKS
CHATTANOOGA    CLOUDY    66  64  93 SW5       29.89F
$$

SKY/WX REPORTED AS FAIR MEANS FEW OR NO CLOUDS BELOW
12 THOUSAND FEET.





USA.gov is the U.S. government's official web portal to all federal, state and local government web resources and services.